Stations météo

Publicité
St-Girons, France (7627): Température de l'air & dewpoint: 06.08.2020 06:00:00 - 12.08.2020 06:00:00 (CEST)St-Girons, France (7627): Température de l'air 5cm: 06.08.2020 06:00:00 - 12.08.2020 06:00:00 (CEST)St-Girons, France (7627): Température de l'air -20cm & Température de l'air -100cm: 06.08.2020 06:00:00 - 12.08.2020 06:00:00 (CEST)St-Girons, France (7627): Vitesse du vent & gusts: 06.08.2020 06:00:00 - 12.08.2020 06:00:00 (CEST)St-Girons, France (7627): Direction du vent: 06.08.2020 06:00:00 - 12.08.2020 06:00:00 (CEST)St-Girons, France (7627): reduced air pressure: 06.08.2020 06:00:00 - 12.08.2020 06:00:00 (CEST)St-Girons, France (7627): visibility: 06.08.2020 06:00:00 - 12.08.2020 06:00:00 (CEST)St-Girons, France (7627): Ensoleillement: 06.08.2020 06:00:00 - 12.08.2020 06:00:00 (CEST)St-Girons, France (7627): Quantités de précipitations: 06.08.2020 06:00:00 - 12.08.2020 06:00:00 (CEST)
Date & Time tt [°C] td [°C] tt 5cm [°C] tt -20cm [°C] tt -100cm [°C] ff [km/h] ff [knt] fx [km/h] fx [knt] dd ppp [hPa] vv [km] sd [min] rr [mm]
12.08.2020 06:00:00 - - - - - - - - - - - - - -
12.08.2020 05:00:00 - - - - - - - - - - - - - -
12.08.2020 04:00:00 - - - - - - - - - - - - - -
12.08.2020 03:00:00 - - - - - - - - - - - - - -
12.08.2020 02:00:00 - - - - - - - - - - - - - -
12.08.2020 01:00:00 - - - - - - - - - - - - - -
12.08.2020 00:00:00 - - - - - - - - - - - - - -
11.08.2020 23:00:00 - - - - - - - - - - - - - -
11.08.2020 22:00:00 - - - - - - - - - - - - - -
11.08.2020 21:00:00 - - - - - - - - - - - - - -
11.08.2020 20:00:00 - - - - - - - - - - - - - -
11.08.2020 19:00:00 - - - - - - - - - - - - - -
11.08.2020 18:00:00 - - - - - - - - - - - - - -
11.08.2020 17:00:00 - - - - - - - - - - - - - -
11.08.2020 16:00:00 - - - - - - - - - - - - - -
11.08.2020 15:00:00 - - - - - - - - - - - - - -
11.08.2020 14:00:00 - - - - - - - - - - - - - -
11.08.2020 13:00:00 - - - - - - - - - - - - - -
11.08.2020 12:00:00 - - - - - - - - - - - - - -
11.08.2020 11:00:00 - - - - - - - - - - - - - -
11.08.2020 10:00:00 - - - - - - - - - - - - - -
11.08.2020 09:00:00 - - - - - - - - - - - - - -
11.08.2020 08:00:00 - - - - - - - - - - - - - -
11.08.2020 07:00:00 - - - - - - - - - - - - - -
11.08.2020 06:00:00 - - - - - - - - - - - - - -
11.08.2020 05:00:00 - - - - - - - - - - - - - -
11.08.2020 04:00:00 - - - - - - - - - - - - - -
11.08.2020 03:00:00 - - - - - - - - - - - - - -
11.08.2020 02:00:00 - - - - - - - - - - - - - -
11.08.2020 01:00:00 - - - - - - - - - - - - - -
11.08.2020 00:00:00 - - - - - - - - - - - - - -
10.08.2020 23:00:00 - - - - - - - - - - - - - -
10.08.2020 22:00:00 - - - - - - - - - - - - - -
10.08.2020 21:00:00 - - - - - - - - - - - - - -
10.08.2020 20:00:00 - - - - - - - - - - - - - -
10.08.2020 19:00:00 - - - - - - - - - - - - - -
10.08.2020 18:00:00 - - - - - - - - - - - - - -
10.08.2020 17:00:00 - - - - - - - - - - - - - -
10.08.2020 16:00:00 - - - - - - - - - - - - - -
10.08.2020 15:00:00 - - - - - - - - - - - - - -
10.08.2020 14:00:00 - - - - - - - - - - - - - -
10.08.2020 13:00:00 - - - - - - - - - - - - - -
10.08.2020 12:00:00 - - - - - - - - - - - - - -
10.08.2020 11:00:00 - - - - - - - - - - - - - -
10.08.2020 10:00:00 - - - - - - - - - - - - - -
10.08.2020 09:00:00 - - - - - - - - - - - - - -
10.08.2020 08:00:00 19,7 15,3 18,1 22,2 20,1 14 8 25 13 WNW 1013,6 20 0 0,0
10.08.2020 07:00:00 20,8 13,7 18,5 22,3 20,2 16 9 24 13 SE 1012,1 20 0 0,0
10.08.2020 06:00:00 21,5 14,2 17,0 22,3 20,1 14 7 41 22 SE 1012,2 20 0 0,0
10.08.2020 05:00:00 18,5 15,2 16,0 22,4 20,1 4 2 9 5 NNE 1013,8 20 0 0,0
10.08.2020 04:00:00 18,7 15,0 16,7 22,4 20,1 9 5 13 7 SSE 1014,3 20 0 0,0
10.08.2020 03:00:00 19,6 15,5 16,8 22,5 20,1 4 2 11 6 SSW 1014,7 20 0 0,0
10.08.2020 02:00:00 21,5 15,6 19,6 22,6 20,1 7 4 12 6 SSE 1014,1 20 0 0,0
10.08.2020 01:00:00 23,1 15,2 19,8 22,6 20,1 9 5 26 14 W 1013,7 20 0 0,0
10.08.2020 00:00:00 24,8 14,9 22,8 22,6 20,1 10 5 26 14 S 1012,0 20 0 0,0
09.08.2020 23:00:00 26,6 14,0 23,9 22,7 20,1 13 7 24 13 SE 1012,2 20 0 0,0
09.08.2020 22:00:00 26,7 14,1 23,5 22,7 20,1 15 8 32 18 SE 1012,0 20 0 0,0
09.08.2020 21:00:00 26,1 16,6 24,8 22,7 20,1 20 11 29 16 SSE 1012,0 20 0 0,0
09.08.2020 20:00:00 28,3 14,2 27,0 22,7 20,1 9 5 33 18 SE 1011,7 20 49 0,0
09.08.2020 19:00:00 26,5 15,2 26,6 22,7 20,1 19 10 39 21 SE 1012,2 20 0 0,0
09.08.2020 18:00:00 28,0 13,5 25,2 22,7 20,1 24 13 36 19 SSE 1012,8 20 0 0,0
09.08.2020 17:00:00 26,2 14,6 25,3 22,6 20,1 18 10 56 30 SE 1014,0 20 0 0,0
09.08.2020 16:00:00 30,0 14,9 27,6 22,4 20,1 22 12 51 27 SSW 1013,8 20 0 0,0
09.08.2020 15:00:00 34,1 16,5 33,6 22,3 20,1 7 4 19 10 ESE 1012,3 20 17 0,0
09.08.2020 14:00:00 35,5 17,2 41,7 22,2 20,0 9 5 21 11 NE 1012,2 20 60 0,0
09.08.2020 13:00:00 33,4 19,1 37,9 22,2 20,1 6 4 12 6 N 1013,4 20 37 0,0
09.08.2020 12:00:00 32,2 19,1 36,9 22,2 20,0 6 3 17 9 SE 1014,4 20 51 0,0
09.08.2020 11:00:00 29,9 19,0 32,9 22,3 20,0 9 5 20 11 ESE 1015,0 20 60 0,0
09.08.2020 10:00:00 26,4 18,8 24,4 22,3 20,0 3 1 17 9 ESE 1016,3 20 19 0,0
09.08.2020 09:00:00 23,9 17,9 22,5 22,4 20,0 14 7 24 13 SE 1016,8 20 26 0,0
09.08.2020 08:00:00 23,4 17,8 21,8 22,4 20,0 11 6 28 15 SSE 1016,8 20 8 0,0
09.08.2020 07:00:00 23,4 17,8 21,0 22,5 20,0 15 8 31 17 SSE 1016,6 20 0 0,0
09.08.2020 06:00:00 22,6 18,2 20,6 22,5 20,0 13 7 24 13 SE 1017,3 20 0 0,0
09.08.2020 05:00:00 22,6 18,6 19,7 22,6 20,0 16 8 24 13 SE 1018,0 20 0 0,0
09.08.2020 04:00:00 21,1 17,5 18,8 22,7 20,0 10 5 16 9 SSE 1019,2 20 0 0,0
09.08.2020 03:00:00 22,5 16,8 19,0 22,7 20,0 10 6 40 22 NW 1019,9 20 0 0,0
09.08.2020 02:00:00 21,3 18,5 18,7 22,7 20,0 3 2 11 6 N 1019,4 20 0 0,0
09.08.2020 01:00:00 21,6 18,0 18,4 22,8 20,0 4 2 10 5 WNW 1018,5 20 0 0,0
09.08.2020 00:00:00 22,4 19,0 20,8 22,8 20,0 5 3 15 8 W 1017,9 20 0 0,0
08.08.2020 23:00:00 23,6 18,5 21,0 22,7 20,0 3 2 14 8 SW 1017,2 20 0 0,0
08.08.2020 22:00:00 25,3 19,4 22,1 22,7 20,0 3 1 13 7 SE 1017,2 20 0 0,0
08.08.2020 21:00:00 27,7 20,0 25,1 22,6 20,0 5 3 10 5 S 1016,1 20 41 0,0
08.08.2020 20:00:00 32,6 18,8 31,8 22,5 20,0 4 2 8 4 WNW 1015,0 20 50 0,0
08.08.2020 19:00:00 34,4 16,3 35,8 22,4 20,0 4 2 8 5 N 1014,6 20 54 0,0
08.08.2020 18:00:00 34,2 15,6 38,6 22,3 20,0 4 2 13 7 NNE 1015,0 20 50 0,0
08.08.2020 17:00:00 34,8 17,5 41,2 22,1 20,0 5 3 20 11 NNE 1015,2 20 58 0,0
08.08.2020 16:00:00 33,6 17,3 39,7 22,0 20,0 10 6 19 10 NNW 1015,9 20 60 0,0
08.08.2020 15:00:00 33,5 17,6 40,6 21,9 20,0 8 4 19 10 NNE 1016,4 20 60 0,0
08.08.2020 14:00:00 31,5 19,8 38,8 21,8 20,0 9 5 18 10 NW 1017,3 20 60 0,0
08.08.2020 13:00:00 30,3 19,7 38,1 21,7 20,0 7 4 17 9 NNW 1017,9 20 60 0,0
08.08.2020 12:00:00 29,1 18,8 35,4 21,7 20,0 4 2 9 5 WNW 1018,7 20 60 0,0
08.08.2020 11:00:00 26,1 17,2 30,6 21,8 20,0 4 2 13 7 NNW 1019,7 20 60 0,0
08.08.2020 10:00:00 25,1 17,3 24,5 21,8 20,0 3 2 11 6 WNW 1020,4 20 60 0,0
08.08.2020 09:00:00 22,4 19,0 21,4 21,9 20,0 6 4 11 6 NNW 1020,9 20 60 0,0
08.08.2020 08:00:00 20,4 19,4 17,1 21,9 20,0 2 1 5 3 SE 1021,1 18 5 0,0
08.08.2020 07:00:00 20,0 19,0 17,8 21,9 20,0 4 2 14 7 WSW 1020,9 19 0 0,0
08.08.2020 06:00:00 21,3 18,7 18,8 22,0 20,0 4 2 6 4 SW 1020,2 20 0 0,0
08.08.2020 05:00:00 22,5 19,5 21,4 22,1 20,0 5 3 29 16 WNW 1020,1 20 0 0,0
08.08.2020 04:00:00 23,2 18,7 22,0 22,1 20,0 22 12 58 31 WNW 1019,4 20 0 0,0
08.08.2020 03:00:00 24,7 16,1 21,3 22,2 20,0 16 9 26 14 SE 1018,0 20 0 0,0
08.08.2020 02:00:00 23,1 17,3 20,0 22,2 20,0 8 4 17 9 ESE 1019,1 20 0 0,0
08.08.2020 01:00:00 22,4 16,4 20,0 22,2 20,0 2 1 16 9 S 1019,8 20 0 0,0
08.08.2020 00:00:00 23,8 17,5 20,5 22,2 20,0 8 4 15 8 SE 1019,0 20 0 0,0
07.08.2020 23:00:00 23,0 17,5 19,8 22,2 20,0 7 4 12 7 SE 1018,5 20 0 0,0
07.08.2020 22:00:00 26,0 16,3 21,9 22,2 20,0 6 3 18 10 S 1016,3 20 0 0,0
07.08.2020 21:00:00 27,1 17,0 23,0 22,1 20,0 9 5 11 6 SE 1014,9 20 10 0,0
07.08.2020 20:00:00 34,8 14,1 34,6 22,0 20,0 5 3 21 11 E 1012,9 20 60 0,0
07.08.2020 19:00:00 36,5 12,0 36,3 21,9 20,0 9 5 20 11 E 1012,7 20 60 0,0
07.08.2020 18:00:00 37,4 10,7 41,7 21,7 20,0 11 6 24 13 E 1012,8 20 60 0,0
07.08.2020 17:00:00 37,9 11,8 44,2 21,5 20,0 9 5 21 11 NE 1013,1 20 60 0,0
07.08.2020 16:00:00 38,1 10,5 44,2 21,4 20,0 7 4 20 11 NNE 1013,4 20 60 0,0
07.08.2020 15:00:00 36,6 12,8 44,0 21,3 20,0 6 4 16 9 NW 1014,0 20 60 0,0
07.08.2020 14:00:00 35,9 13,4 44,1 21,2 20,0 5 3 10 6 E 1014,3 20 60 0,0
07.08.2020 13:00:00 34,7 13,5 35,9 21,1 20,0 3 2 9 5 SE 1014,7 20 41 0,0
07.08.2020 12:00:00 33,1 14,7 36,9 21,1 20,0 3 2 7 4 E 1015,0 20 48 0,0
07.08.2020 11:00:00 30,1 15,4 30,4 21,2 20,0 2 1 8 5 S 1015,1 20 53 0,0
07.08.2020 10:00:00 27,7 16,3 24,7 21,2 20,0 3 2 11 6 SSW 1015,1 20 60 0,0
07.08.2020 09:00:00 22,9 14,2 20,3 21,3 20,0 0 0 11 6 N 1015,7 20 60 0,0
07.08.2020 08:00:00 18,4 13,0 14,1 21,4 20,0 6 3 16 9 W 1016,0 20 23 0,0
07.08.2020 07:00:00 16,5 12,1 12,8 21,4 20,0 5 3 13 7 SW 1016,2 20 0 0,0
07.08.2020 06:00:00 16,0 11,8 13,6 21,5 20,0 3 1 29 15 WSW 1016,1 20 0 0,0
07.08.2020 05:00:00 20,7 11,6 14,7 21,6 20,0 14 8 26 14 SE 1015,0 20 0 0,0
07.08.2020 04:00:00 18,6 11,9 15,4 21,6 20,0 3 2 25 13 SW 1015,8 20 0 0,0
07.08.2020 03:00:00 21,6 11,9 19,2 21,7 20,0 18 10 34 18 SSE 1015,6 20 0 0,0
07.08.2020 02:00:00 22,7 11,7 19,4 21,7 20,0 17 9 31 17 SE 1015,5 20 0 0,0
07.08.2020 01:00:00 23,3 12,0 20,4 21,7 20,0 19 10 27 14 SE 1015,7 20 0 0,0
07.08.2020 00:00:00 24,2 12,5 20,4 21,7 20,0 17 9 31 17 SE 1015,6 20 0 0,0
06.08.2020 23:00:00 24,2 12,8 18,2 21,7 20,0 17 9 23 12 SE 1015,6 20 0 0,0
06.08.2020 22:00:00 22,8 13,6 18,2 21,7 20,0 9 5 16 9 SSE 1015,5 20 0 0,0
06.08.2020 21:00:00 24,6 13,2 20,8 21,6 20,0 8 4 10 6 SSE 1014,8 20 35 0,0
06.08.2020 20:00:00 30,7 14,8 32,0 21,5 20,0 5 3 12 6 W 1013,3 20 60 0,0
06.08.2020 19:00:00 34,1 9,4 33,8 21,3 20,0 5 3 15 8 NNE 1012,6 20 60 0,0
06.08.2020 18:00:00 34,7 8,4 40,5 21,2 20,0 8 4 19 11 NNE 1012,5 20 60 0,0
06.08.2020 17:00:00 34,8 9,2 41,2 21,0 20,0 7 4 18 10 N 1012,6 20 60 0,0
06.08.2020 16:00:00 34,3 8,8 42,3 20,9 20,0 6 3 17 9 N 1012,8 18 60 0,0
06.08.2020 15:00:00 33,4 9,4 - - - 8 4 21 11 NNE 1013,3 20 - 0,0
06.08.2020 14:00:00 32,3 10,3 39,7 20,7 20,0 7 4 21 11 NE 1013,7 20 60 0,0
06.08.2020 13:00:00 30,7 10,1 39,2 20,6 20,0 7 4 14 7 E 1014,4 20 60 0,0
06.08.2020 12:00:00 29,5 11,1 36,0 20,6 20,0 4 2 11 6 ESE 1014,8 20 60 0,0
06.08.2020 11:00:00 26,8 12,4 29,9 20,7 20,0 4 2 11 6 E 1015,4 20 60 0,0
06.08.2020 10:00:00 24,0 13,2 20,1 20,8 20,0 4 2 10 6 SSE 1015,8 20 60 0,0
06.08.2020 09:00:00 18,6 11,9 16,0 20,9 20,0 2 1 14 7 W 1016,6 20 60 0,0
06.08.2020 08:00:00 13,0 11,6 7,7 21,0 20,0 2 1 6 3 SSE 1017,3 20 24 0,0
06.08.2020 07:00:00 10,6 10,0 6,9 21,0 20,0 2 1 6 3 W 1017,5 20 0 0,0
06.08.2020 06:00:00 11,5 9,7 7,6 21,1 20,0 0 0 6 3 N 1017,1 20 0 0,0

tt = Température de l'air
td = dewpoint
tt 5cm = Température de l'air 5cm
tt -20cm = Température de l'air -20cm
tt -100cm = Température de l'air -100cm
ff = Vitesse du vent
fx = gusts
dd = Direction du vent
ppp = reduced air pressure
vv = visibility
sd = Ensoleillement
rr = Quantités de précipitations

stations d'obs. à proximité